{"data":{"norad_id":58497,"intl_designator":"2023-187B","name":"MISRSAT-2","alt_names":[],"object_type":"PAYLOAD","status":"ACTIVE","operator":null,"country":"EGYP","launch_date":"2023-12-04","launch_site_code":"JSC","launch_vehicle":null,"mission":null,"orbit_class":"UNKNOWN","rcs_meters":null,"size_class":null,"mass_kg":null,"dimensions":null,"purposes":[],"wikipedia_slug":null,"has_3d_model":false,"image_url":null,"decayed_at":null,"tle_current":{"epoch":"2026-09-21T22:13:14.280672Z","epoch_age_seconds":121880,"freshness":"FRESH","line1":"1 58497U 23187B   26264.92585973  .00000642  00000+0  84732-4 0  9991","line2":"2 58497  97.9219 346.0878 0010844 184.1584 175.9541 14.83427075151387","mean_motion":14.83427075,"eccentricity":0.0010844,"inclination_deg":97.9219,"raan_deg":346.0878,"arg_perigee_deg":184.1584,"mean_anomaly_deg":175.9541,"bstar":8.4732e-5,"rev_number":15138,"period_min":97.072517029528,"perigee_km":610.94017305623,"apogee_km":626.11453871127,"semimajor_km":6996.6643558838,"source":"CELESTRAK","updated_at":"2026-09-22T09:00:26.679612Z"}}}